Victor, MT (59875)

3:43 PM MST on February 07, 2016 (GMT -0700)
Dutch Hill | | Change Station
CLOSE
Current Station
Personal Weather Station
Location: Hamilton, MT
Elevation: 3668 ft
Nearby Weather Stations

Elev 3668 ft 46.31 °N, 114.18 °W | Updated 1 minute ago

Clear
Clear
44.6 °F
Feels Like 45 °F
N
0.0
Wind Variable Wind from SE
Gusts 0.0 mph

Today
High -- | Low -- °F
--% Chance of Precip.
Yesterday
High -- | Low -- °F
Precip. -- in
Pressure 30.68 in
Visibility 10.0 miles
Clouds Clear
Windchill 45 °F
Dew Point 22 °F
Humidity 41%
Rainfall Not available.
Snow Depth Not available.
7:52 AM 5:49 PM
Waning Crescent, 1% visible
METAR KMSO 072153Z 00000KT 10SM CLR 02/M06 A3057 RMK AO2 SLP388 T00171056 $
Pressure 30.68 in
Visibility 10.0 miles
Clouds Clear
Windchill 45 °F
Dew Point 22 °F
Humidity 41%
Rainfall Not available.
Snow Depth Not available.
7:52 AM 5:49 PM
Waning Crescent, 1% visible
METAR KMSO 072153Z 00000KT 10SM CLR 02/M06 A3057 RMK AO2 SLP388 T00171056 $

10-Day Weather Forecast

Almanac

Astronomy

Feb. 07, 2016 Rise Set
Actual Time
Civil Twilight
Nautical Twilight
Astronomical Twilight
Moon
Length of Visible Light
Length of Day
Tomorrow will be .
, % of the Moon is Illuminated

Today's Extremes

State Highs State Lows

Community

WunderPhotos

Upload Photos

1,891,323 photos uploaded!

WunderBlog® & News

Nearby

Air Quality

  Air Quality AQ Index Pollutant
Not available.

Snow Depth

Station Depth Elevation

Earthquake Activity

City Distance Mag. Time & Date
Minimum magnitude displayed is 2.5.

Coastal Water Temperatures

Place Temperature

Stations

Nearby Weather Stations

Station Location Temp. Windchill Dew Point Humidity Wind Precip. Elev Updated Type
                   

Watches & Warnings

There are currently no watches in effect.